ZHONGXING-1D

Last updated on Sun Apr 12 2026 00:02:56 GMT+0000 (Coordinated Universal Time)

1 49505U 21114A 26101.54643082 -.00000335 00000+0 00000+0 0 9994 2 49505 0.0321 335.3158 0001645 243.5000 307.8180 1.00274654 16158
UTC large
Height (km)
Speed (km/s)
/
Latitude / Longitude
Inclination (degrees)
Orbital Period (minutes)
Azimuth
Elevation
Range (km)
Doppler Factor

Next 0 passes for location: London (51.5072 / 0.1276)

Sorry there are no passes over London.
ZHONGXING-1D